User: anonymous   Login
Location: Unspecified
(0.0000°N, 0.0000°E)
Time: 08:02:24
(UTC+00:00)
Language:

Syncom 2 - Orbit

View from above orbital plane
View from above orbital plane
View from above satellite
View from above satellite

Ground track
Ground track

The orbit data is extracted from the following two-line orbital elements,

1 00634U 63031A   18262.74452514 -.00000188  00000-0  00000+0 0  9994
2 00634  35.0158 339.5867 0005512 153.3967 219.5661  1.00281186202006
Epoch (UTC): 19 September 2018 17:52:06
Eccentricity: 0.0005512
inclination: 35.0158°
perigee height: 35760 km
apogee height: 35807 km
right ascension of ascending node: 339.5867°
argument of perigee: 153.3967°
revolutions per day: 1.00281186
mean anomaly at epoch: 219.5661°
orbit number at epoch: 20200

The dashed part of the orbit path shows where the satellite is in the earth's shadow,  

DLR